Regional Weather Roundup
Issued by NWS

Home | Current Version | Previous Version | Graphics & Text | Print | Product List | Glossary On
Versions: 1 2 3 4 5 6 7 8 9 10 11 12 13 14 15 16 17 18 19 20 21 22 23 24 25 26 27 28 29 30 31 32 33 34 35 36 37 38 39 40 41 42 43 44 45 46 47 48 49 50
000
ASUS43 KIND 290559
RWRIN

WEATHER ROUNDUP FOR INDIANA
NATIONAL WEATHER SERVICE INDIANAPOLIS IN
200 AM EDT TUE JUL 29 2014

NOTE: "FAIR" INDICATES FEW OR NO CLOUDS BELOW 12,000 FEET WITH NO
SIGNIFICANT WEATHER AND/OR OBSTRUCTIONS TO VISIBILITY.

* - STATION DOES NOT REPORT WEATHER SUCH AS PRECIPITATION OR FOG.

+ - STATION NOT QUALITY CONTROLLED BY THE NATIONAL WEATHER SERVICE.
    USE DATA WITH CAUTION...ESPECIALLY DEWPOINT AND RELATIVE
    HUMIDITY OBSERVATIONS.

INZ001>003-010>013-019-020-290700-
NORTHWEST INDIANA

CITY           SKY/WX    TMP DP  RH WIND       PRES   REMARKS
VALPARAISO     CLOUDY    57  52  83 NW3       30.06S
6HR MIN TEMP:  54; 6HR MAX TEMP:  64;


$$

LMZ046-743>745-290700-
SOUTHERN LAKE MICHIGAN

STATION/POSITION TIME  TEMP WIND        PRES
                       AIR  DIR/SP/G
                 (UTC) (F)  (DEG/KT/KT) (MB)
MICHIGAN CITY    0500   64  350/  7/  9   N/A

$$

INZ004-005-014>016-021>024-290700-
NORTH CENTRAL INDIANA

CITY           SKY/WX    TMP DP  RH WIND       PRES   REMARKS
GOSHEN         CLEAR     51  48  89 W3        30.04S
6HR MIN TEMP:  50; 6HR MAX TEMP:  60;

SOUTH BEND     PTCLDY    55  49  80 NW6       30.05F
6HR MIN TEMP:  54; 6HR MAX TEMP:  60;


$$

INZ006>009-017-018-025>027-290700-
NORTHEAST INDIANA

CITY           SKY/WX    TMP DP  RH WIND       PRES   REMARKS
ANGOLA *+      CLEAR     52  48  87 CALM      30.03S
FORT WAYNE     PTCLDY    52  49  89 NW3       30.04S
6HR MIN TEMP:  52; 6HR MAX TEMP:  62;


$$

INZ028-029-035-036-043>045-051>053-290700-
WEST CENTRAL INDIANA

CITY           SKY/WX    TMP DP  RH WIND       PRES   REMARKS
GREENCASTLE +  CLEAR     54  46  76 CALM      30.08R
LAFAYETTE      CLEAR     52  49  89 W3        30.06F
6HR MIN TEMP:  50; 6HR MAX TEMP:  64;

TERRE HAUTE    CLEAR     52  49  89 W3        30.09R
6HR MIN TEMP:  52; 6HR MAX TEMP:  68;


$$

INZ030>032-037>040-046>048-054>057-064-065-290700-
CENTRAL INDIANA

CITY           SKY/WX    TMP DP  RH WIND       PRES   REMARKS
INDIANAPOLIS   PTCLDY    56  47  71 N9        30.05R
6HR MIN TEMP:  56; 6HR MAX TEMP:  65;

-EAGLE CREEK   PTCLDY    57  47  69 N6        30.05S
6HR MIN TEMP:  56; 6HR MAX TEMP:  65;

KOKOMO *+      PTCLDY    52  46  82 NW6       30.06R
MT COMFORT *+  CLEAR     52  52 100 N6        30.05S
SHELBYVILLE    CLEAR     53  48  83 N5        30.04S
6HR MIN TEMP:  53; 6HR MAX TEMP:  67;


$$

INZ033-034-041-042-049-050-058-059-290700-
EAST CENTRAL INDIANA

CITY           SKY/WX    TMP DP  RH WIND       PRES   REMARKS
MUNCIE         PTCLDY    51  48  89 NW5       30.04S
6HR MIN TEMP:  51; 6HR MAX TEMP:  63;


$$

INZ060-061-067>069-081>083-085>088-290700-
SOUTHWEST INDIANA

CITY           SKY/WX    TMP DP  RH WIND       PRES   REMARKS
EVANSVILLE     CLEAR     62  50  64 N6        30.08F
6HR MIN TEMP:  62; 6HR MAX TEMP:  74;


$$

INZ062-063-066-070>080-084-089>092-290700-
SOUTH CENTRAL AND SOUTHEAST INDIANA

CITY           SKY/WX    TMP DP  RH WIND       PRES   REMARKS
BLOOMINGTON    CLEAR     54  48  80 CALM      30.07S
6HR MIN TEMP:  53; 6HR MAX TEMP:  69;

SEYMOUR +      CLEAR     48  37  66 W5        30.06

$$




USA.gov is the U.S. government's official web portal to all federal, state and local government web resources and services.